TimeCET,TemperatureF,Dew PointF,Humidity,Sea Level PressureIn,VisibilityMPH,Wind Direction,Wind SpeedMPH,Gust SpeedMPH,PrecipitationIn,Events,Conditions,WindDirDegrees,DateUTC
12:00 AM,51.8,46.4,82,29.74,-9999.0,Variable,2.3,-,N/A,,Clear,0,2013-03-18 23:00:00
12:30 AM,51.8,44.6,76,29.74,-9999.0,Calm,Calm,-,N/A,,Clear,0,2013-03-18 23:30:00
1:00 AM,50,42,65,29.75,9,Calm,Calm,,,,Clear,,2013-03-19 00:00:00
1:00 AM,50.0,44.6,82,29.74,-9999.0,Calm,Calm,-,N/A,,Clear,0,2013-03-19 00:00:00
1:30 AM,51.8,41.0,67,29.74,-9999.0,Variable,2.3,-,N/A,,Clear,0,2013-03-19 00:30:00
2:00 AM,51.8,39.2,62,29.71,-9999.0,Calm,Calm,-,N/A,,Clear,0,2013-03-19 01:00:00
2:30 AM,53.6,39.2,58,29.71,-9999.0,WNW,9.2,-,N/A,,Clear,300,2013-03-19 01:30:00
3:00 AM,50.0,39.2,66,29.71,-9999.0,Variable,2.3,-,N/A,,Clear,0,2013-03-19 02:00:00
3:30 AM,48.2,39.2,71,29.71,-9999.0,NW,3.5,-,N/A,,Clear,310,2013-03-19 02:30:00
4:00 AM,44.6,39.2,81,29.71,-9999.0,WNW,3.5,-,N/A,,Clear,290,2013-03-19 03:00:00
4:30 AM,44.6,41.0,87,29.71,-9999.0,WNW,4.6,-,N/A,,Clear,300,2013-03-19 03:30:00
5:00 AM,42.8,39.2,87,29.71,-9999.0,Variable,2.3,-,N/A,,Clear,0,2013-03-19 04:00:00
5:30 AM,46.4,41.0,81,29.71,-9999.0,Variable,2.3,-,N/A,,Clear,0,2013-03-19 04:30:00
6:00 AM,48.2,42.8,82,29.71,-9999.0,Variable,1.2,-,N/A,,Clear,0,2013-03-19 05:00:00
6:30 AM,46.4,41.0,81,29.71,-9999.0,NW,4.6,-,N/A,,Clear,310,2013-03-19 05:30:00
7:00 AM,49,41,67,29.73,12,NW,5.8,,,,Clear,320,2013-03-19 06:00:00
7:00 AM,50.0,44.6,82,29.71,-9999.0,NW,5.8,-,N/A,,Clear,320,2013-03-19 06:00:00
7:30 AM,51.8,44.6,76,29.71,-9999.0,NW,4.6,-,N/A,,Clear,310,2013-03-19 06:30:00
8:00 AM,51.8,44.6,76,29.71,6.2,WNW,3.5,-,N/A,,Partly Cloudy,290,2013-03-19 07:00:00
8:30 AM,55.4,46.4,72,29.74,6.2,West,4.6,-,N/A,,Partly Cloudy,280,2013-03-19 07:30:00
9:00 AM,57.2,46.4,67,29.74,6.2,Variable,2.3,-,N/A,,Partly Cloudy,0,2013-03-19 08:00:00
9:30 AM,62.6,48.2,59,29.74,6.2,Calm,Calm,-,N/A,,Partly Cloudy,0,2013-03-19 08:30:00
10:00 AM,60.8,46.4,59,29.74,-9999.0,Variable,1.2,-,N/A,,Clear,0,2013-03-19 09:00:00
10:30 AM,62.6,44.6,52,29.71,-9999.0,Variable,1.2,-,N/A,,Clear,0,2013-03-19 09:30:00
11:00 AM,62.6,48.2,59,29.71,-9999.0,Variable,2.3,-,N/A,,Clear,0,2013-03-19 10:00:00
11:30 AM,62.6,46.4,55,29.71,-9999.0,East,3.5,-,N/A,,Clear,80,2013-03-19 10:30:00
12:00 PM,64.4,46.4,52,29.71,-9999.0,East,3.5,-,N/A,,Clear,80,2013-03-19 11:00:00
12:30 PM,64.4,41.0,42,29.68,-9999.0,East,5.8,-,N/A,,Clear,100,2013-03-19 11:30:00
1:00 PM,65,33,19,29.68,19,East,6.9,,,,Scattered Clouds,90,2013-03-19 12:00:00
1:00 PM,64.4,37.4,37,29.68,-9999.0,East,6.9,-,N/A,,Clear,90,2013-03-19 12:00:00
1:30 PM,66.2,35.6,32,29.65,-9999.0,East,8.1,-,N/A,,Clear,80,2013-03-19 12:30:00
2:00 PM,64.4,35.6,34,29.65,-9999.0,East,8.1,-,N/A,,Clear,100,2013-03-19 13:00:00
2:30 PM,66.2,35.6,32,29.62,-9999.0,East,8.1,-,N/A,,Clear,100,2013-03-19 13:30:00
3:00 PM,66.2,35.6,32,29.62,-9999.0,ESE,8.1,-,N/A,,Clear,110,2013-03-19 14:00:00
3:30 PM,64.4,32.0,30,29.62,-9999.0,East,8.1,-,N/A,,Clear,90,2013-03-19 14:30:00
4:00 PM,64.4,39.2,40,29.62,6.2,East,6.9,-,N/A,,Partly Cloudy,100,2013-03-19 15:00:00
4:30 PM,62.6,37.4,39,29.62,6.2,SE,5.8,-,N/A,,Partly Cloudy,130,2013-03-19 15:30:00
5:00 PM,64.4,42.8,45,29.62,6.2,South,3.5,-,N/A,,Partly Cloudy,170,2013-03-19 16:00:00
5:30 PM,62.6,44.6,52,29.59,6.2,SSE,3.5,-,N/A,,Partly Cloudy,160,2013-03-19 16:30:00
6:00 PM,60.8,42.8,52,29.62,6.2,South,6.9,-,N/A,,Partly Cloudy,170,2013-03-19 17:00:00
6:30 PM,59.0,44.6,59,29.62,6.2,Variable,2.3,-,N/A,,Partly Cloudy,0,2013-03-19 17:30:00
7:00 PM,58,42,44,29.61,19,South,2.3,,,,Scattered Clouds,190,2013-03-19 18:00:00
7:00 PM,59.0,44.6,59,29.59,6.2,Variable,1.2,-,N/A,,Partly Cloudy,0,2013-03-19 18:00:00
7:30 PM,57.2,46.4,67,29.62,6.2,SSW,3.5,-,N/A,,Partly Cloudy,210,2013-03-19 18:30:00
8:00 PM,57.2,48.2,72,29.62,6.2,Variable,2.3,-,N/A,,Partly Cloudy,0,2013-03-19 19:00:00
8:30 PM,57.2,50.0,77,29.62,6.2,Variable,1.2,-,N/A,,Partly Cloudy,0,2013-03-19 19:30:00
9:00 PM,55.4,51.8,88,29.62,6.2,Variable,1.2,-,N/A,Rain,Light Rain,0,2013-03-19 20:00:00
9:30 PM,55.4,51.8,88,29.59,6.2,Calm,Calm,-,N/A,Rain,Light Rain,0,2013-03-19 20:30:00
10:00 PM,55.4,51.8,88,29.62,6.2,Calm,Calm,-,N/A,Rain,Light Rain,0,2013-03-19 21:00:00
10:30 PM,53.6,51.8,94,29.59,6.2,Variable,2.3,-,N/A,,Partly Cloudy,0,2013-03-19 21:30:00
11:00 PM,53.6,51.8,94,29.59,6.2,Variable,2.3,-,N/A,,Partly Cloudy,0,2013-03-19 22:00:00
11:30 PM,53.6,51.8,94,29.59,6.2,Variable,2.3,-,N/A,,Partly Cloudy,0,2013-03-19 22:30:00